Location: Austin
(30.3000°N, 97.7500°W)
Time: 11:15:44
(UTC-05:00)

UNK - Pass Details

Date: 25 May 2026
Orbit: 653 x 672 km, 98.4° (Epoch: 11 June)

Event Time Altitude Azimuth Distance (km) Brightness Sun altitude
Rises 05:32:25 0° 135° (SE) 2,974 7.2 -12.0°
Reaches altitude 10° 05:35:03 10° 120° (ESE) 2,063 6.6 -11.6°
Maximum altitude 05:38:27 22° 70° (ENE) 1,439 6.5 -10.9°
Drops below altitude 10° 05:41:52 10° 21° (NNE) 2,065 7.1 -10.3°
Sets 05:44:30 0° 6° (N) 2,979 7.6 -9.8°
